Overview Statistics Trail Chart Weather Telemetry Raw packets
 

This is the latest recevied weather packets stored in our database for station/object W7TRD. If no packets are shown the sender has not sent any weather packets the latest 10 day(s).

<< 57 58 59 60 61 62 63 >>
Time Temp. Humidity Pressure Rain* Wind** Luminosity Snow
1788227733 28.89° C 42% 1007.5 hPa 0 mm - 60 W/m² -
1788227433 28.89° C 41% 1007.5 hPa 0 mm - 75 W/m² -
1788227128 28.89° C 43% 1007.4 hPa 0 mm - 88 W/m² -
1788226843 29.44° C 39% 1007.5 hPa 0 mm - 89 W/m² -
1788226520 28.89° C 40% 1007.4 hPa 0 mm - 86 W/m² -
1788226216 28.89° C 41% 1007.3 hPa 0 mm - 81 W/m² -
1788225915 28.89° C 41% 1007.4 hPa 0 mm - 76 W/m² -
1788225610 28.89° C 40% 1007.6 hPa 0 mm - 82 W/m² -
1788225307 29.44° C 39% 1007.6 hPa 0 mm - 93 W/m² -
1788225004 29.44° C 41% 1007.6 hPa 0 mm - 87 W/m² -
1788224700 29.44° C 40% 1007.4 hPa 0 mm - 89 W/m² -
1788224399 29.44° C 40% 1007.3 hPa 0 mm - 104 W/m² -
1788224094 29.44° C 39% 1007.5 hPa 0 mm - 90 W/m² -
1788223789 29.44° C 39% 1007.6 hPa 0 mm - 84 W/m² -
1788223488 29.44° C 39% 1007.5 hPa 0 mm - 91 W/m² -
1788223183 28.89° C 38% 1007.7 hPa 0 mm - 89 W/m² -
1788222879 29.44° C 39% 1007.6 hPa 0 mm - 98 W/m² -
1788222577 29.44° C 37% 1007.6 hPa 0 mm - 115 W/m² -
1788222276 28.89° C 40% 1007.6 hPa 0 mm - 123 W/m² -
1788221971 28.89° C 39% 1007.8 hPa 0 mm - 130 W/m² -
1788221666 28.89° C 39% 1007.8 hPa 0 mm - 123 W/m² -
1788221361 28.33° C 40% 1007.7 hPa 0 mm - 103 W/m² -
1788221056 28.33° C 40% 1007.8 hPa 0 mm - 78 W/m² -
1788220755 28.33° C 41% 1007.8 hPa 0 mm - 59 W/m² -
1788220451 28.33° C 41% 1007.9 hPa 0 mm - 51 W/m² -

* Rain latest hour (hover to see other rain measurements)
** Current wind speed in m/s (hover to see current wind gust speed)